User: anonymous   Login
Location: Boleita
(10.4833°N, 66.8167°W)
Time: 12:34:26
(UTC+00:00)
Language:

Cosmos 1536 Rocket - Orbit

View from above orbital plane
View from above orbital plane
View from above satellite
View from above satellite

Ground track
Ground track

The orbit data is extracted from the following two-line orbital elements,

1 14700U 84013B   24279.21507005  .00002776  00000-0  32419-3 0  9996
2 14700  82.5396 183.9454 0019456 165.9948 346.8455 14.84699402196400
Epoch (UTC): 05 October 2024 05:09:42
Eccentricity: 0.0019456
inclination: 82.5396°
perigee height: 601 km
apogee height: 628 km
right ascension of ascending node: 183.9454°
argument of perigee: 165.9948°
revolutions per day: 14.84699402
mean anomaly at epoch: 346.8455°
orbit number at epoch: 19640

The dashed part of the orbit path shows where the satellite is in the earth's shadow,  

DLR